Flag for China Weather past 2 weeks in Hangzhou, Zhejiang, China

72 °F

Light rain. Partly sunny.

Feels Like: 69 °F
Forecast: 65 / 70 °F
Wind: 6 mph from Southeast

Location: Hangzhou Airport

Current Time: Oct 7, 2015 at 12:40:54 PM

Latest Report: Oct 7, 2015 at 12:00 PM

Visibility: N/A

Pressure: 29.92 "Hg

Humidity: 88%

Dew point: 68 °F

Location of HangzhouLocation

Historic Weather in Hangzhou — Graph


Hangzhou temperature yesterday

Maximum temperature yesterday: 73 °F (at 11:30 AM)
Minimum temperature yesterday: 68 °F (at 12:00 AM)
Average temperature yesterday: 69 °F

Past Weeks' High & Low Weather Summary

High86 °F (Sep 30, 2:30 PM)100% (Sep 23, 7:00 AM)30.24 "Hg (Sep 23, 7:00 AM)
Low57 °F (Oct 2, 3:30 AM)34% (Oct 2, 12:30 PM)29.71 "Hg (Sep 24, 2:30 PM)
Average73 °F84%29.95 "Hg
* Reported Sep 22 11:00 AM — Oct 7 11:30 AM, Hangzhou, Weather by CustomWeather, © 2015

Note: Actual official high and low records may vary slightly from our data, if they occured in-between our weather recording intervals... More about our weather records


Hangzhou weather history for previous 24 hours

Time TempWeatherWind HumidityBarometerVisibility
11:30 AM
Wed, Oct 7
72 °FLight rain. Partly sunny.6 mph88%29.95 "Hg4 mi
11:00 AM72 °FLight rain. Partly sunny.6 mph88%29.95 "Hg4 mi
10:30 AM72 °FLight rain. Partly sunny.6 mph88%29.95 "Hg4 mi
10:00 AM70 °FLight rain. Fog.6 mph94%29.98 "Hg3 mi
9:30 AM70 °FLight rain. Fog.6 mph94%29.98 "Hg3 mi
9:00 AM70 °FLight rain. Fog.6 mph94%29.98 "Hg3 mi
8:30 AM70 °FLight rain. Fog.6 mph88%29.98 "Hg3 mi
8:00 AM70 °FLight rain. Fog.3 mph88%29.98 "Hg3 mi
7:30 AM70 °FFog.6 mph88%29.98 "Hg3 mi
7:00 AM70 °FLight rain. Fog.6 mph88%29.95 "Hg3 mi
6:30 AM68 °FLight rain. Fog.6 mph94%29.95 "Hg3 mi
6:00 AM70 °FLight rain. Fog.6 mph88%29.95 "Hg3 mi
5:30 AM70 °FLight rain. Passing clouds.6 mph88%29.95 "Hg4 mi
5:00 AM70 °FPassing clouds.3 mph88%29.95 "Hg4 mi
4:30 AM70 °FPassing clouds.3 mph88%29.95 "Hg4 mi
4:00 AM70 °FPassing clouds.3 mph88%29.95 "Hg4 mi
3:30 AM70 °FPassing clouds.3 mph88%29.98 "Hg4 mi
3:00 AM70 °FPassing clouds.3 mph88%29.98 "Hg4 mi
2:30 AM70 °FPassing clouds.1 mph88%29.98 "Hg4 mi
2:00 AM70 °FPassing clouds.3 mph88%29.98 "Hg4 mi
1:30 AM70 °FPassing clouds.3 mph88%29.98 "Hg4 mi
1:00 AM70 °FPassing clouds.3 mph88%30.01 "Hg4 mi
12:30 AM70 °FPassing clouds.1 mph88%30.01 "Hg5 mi
12:00 AM70 °FPassing clouds.3 mph88%30.01 "Hg5 mi
11:30 PM
Tue, Oct 6
70 °FPassing clouds.3 mph88%30.01 "Hg5 mi
11:00 PM70 °FFog.1 mph88%30.04 "Hg3 mi
10:30 PM68 °FFog.3 mph94%30.04 "Hg3 mi
10:00 PM68 °FFog.3 mph94%30.04 "Hg3 mi
9:30 PM68 °FLight rain. Fog.3 mph94%30.04 "Hg3 mi
9:00 PM70 °FLight rain. Passing clouds.1 mph88%30.04 "Hg4 mi
8:30 PM70 °FPassing clouds.3 mph88%30.04 "Hg4 mi
8:00 PM70 °FPassing clouds.1 mph88%30.04 "Hg4 mi
7:30 PM68 °FPassing clouds.3 mph94%30.04 "Hg4 mi
7:00 PM68 °FPassing clouds.3 mph94%30.04 "Hg4 mi
6:30 PM68 °FPassing clouds.6 mph94%30.04 "Hg5 mi
6:00 PM68 °FPassing clouds.6 mph94%30.04 "Hg5 mi
5:30 PM68 °FDrizzle. Partly sunny.8 mph94%30.04 "Hg5 mi
5:00 PM70 °FDrizzle. Partly sunny.8 mph88%30.04 "Hg5 mi
4:30 PM70 °FPartly sunny.8 mph88%30.04 "Hg5 mi
4:00 PM70 °FPartly sunny.10 mph88%30.04 "Hg5 mi
3:30 PM70 °FPartly sunny.10 mph94%30.04 "Hg4 mi
3:00 PM70 °FPartly sunny.10 mph94%30.04 "Hg4 mi
2:30 PM72 °FPartly sunny.8 mph88%30.04 "Hg4 mi
2:00 PM70 °FPartly sunny.8 mph94%30.04 "Hg4 mi
1:30 PM72 °FFog.6 mph88%30.04 "Hg3 mi
1:00 PM72 °FFog.6 mph88%30.07 "Hg3 mi
12:30 PM72 °FFog.6 mph88%30.07 "Hg3 mi
12:00 PM72 °FFog.6 mph88%30.09 "Hg3 mi
Weather by CustomWeather, © 2015

See weather overviewHow to use our weather pages